Location: *
(55.5817°S, 142.4781°W)
Time: 07:25:36
(UTC+00:00)

Cosmos 1269 Rocket - Pass Details

Date: 29 April 2025
Orbit: 769 x 775 km, 74.1° (Epoch: 23 May)

Event Time Altitude Azimuth Distance (km) Brightness Sun altitude
Exits shadow 14:34:43 32° 239° (WSW) 1,332 4.8 -19.5°
Maximum altitude 14:36:37 45° 287° (WNW) 1,067 4.3 -19.2°
Drops below altitude 10° 14:41:39 10° 358° (N) 2,332 6.5 -18.5°
Sets 14:44:05 0° 4° (N) 3,251 7.3 -18.1°
